DEPIC EDDE-EDDC

Flight info

Callsign DEPIC
Flight time 0h 46m
Altitude 2000
Route 510700N0133353E
Aircraft BE36/L-BDFGLORY/S

Departure

Time 2026-05-08 13:59
Airport Erfurt-Weimar Airport (EDDE)

Arrival

Time 2026-05-08 14:45
Airport Dresden Airport (EDDC)
Time Latitude Longitude Altitude Speed Heading
2026-05-08 13:44 50.97711 10.96040 1022 ft 0 kts 341°
2026-05-08 13:55 50.97745 10.96015 1022 ft 6 kts 310°
2026-05-08 13:55 50.97759 10.95900 1023 ft 9 kts 277°
2026-05-08 13:56 50.97770 10.95766 1023 ft 15 kts 278°
2026-05-08 13:56 50.97784 10.95588 1023 ft 16 kts 277°
2026-05-08 13:56 50.97797 10.95433 1024 ft 13 kts 277°
2026-05-08 13:56 50.97835 10.95354 1024 ft 8 kts 357°
2026-05-08 13:57 50.97881 10.95359 1024 ft 5 kts 10°
2026-05-08 13:57 50.97918 10.95368 1024 ft 7 kts
2026-05-08 13:57 50.97987 10.95385 1025 ft 12 kts 23°
2026-05-08 13:57 50.98008 10.95512 1024 ft 20 kts 95°
2026-05-08 13:58 50.97964 10.96043 1021 ft 73 kts 99°
2026-05-08 13:58 50.97870 10.96971 1079 ft 92 kts 95°
2026-05-08 13:58 50.97894 10.98000 1248 ft 97 kts 85°
2026-05-08 13:58 50.98256 10.98997 1317 ft 114 kts 53°
2026-05-08 13:59 50.98480 11.00234 1418 ft 124 kts 84°
2026-05-08 13:59 50.98586 11.01638 1530 ft 132 kts 83°
2026-05-08 13:59 50.98692 11.03117 1647 ft 138 kts 84°
2026-05-08 13:59 50.98793 11.04644 1759 ft 141 kts 84°
2026-05-08 14:00 50.98888 11.06183 1880 ft 142 kts 83°
2026-05-08 14:00 50.98986 11.07747 1989 ft 143 kts 84°
2026-05-08 14:00 50.99086 11.09358 1997 ft 146 kts 84°
2026-05-08 14:00 50.99180 11.10896 1992 ft 134 kts 84°
2026-05-08 14:01 50.99269 11.12350 1992 ft 133 kts 84°
2026-05-08 14:01 50.99359 11.13822 1992 ft 134 kts 84°
2026-05-08 14:01 50.99453 11.15309 1991 ft 136 kts 84°
2026-05-08 14:01 50.99543 11.16817 1997 ft 138 kts 84°
2026-05-08 14:02 50.99636 11.18344 2001 ft 140 kts 84°
2026-05-08 14:02 50.99730 11.19888 2004 ft 141 kts 84°
2026-05-08 14:02 50.99823 11.21432 2005 ft 140 kts 84°
2026-05-08 14:02 50.99915 11.22962 2006 ft 139 kts 84°
2026-05-08 14:03 51.00008 11.24493 2002 ft 139 kts 84°
2026-05-08 14:03 51.00101 11.26020 1998 ft 138 kts 84°
2026-05-08 14:03 51.00190 11.27523 2002 ft 139 kts 84°
2026-05-08 14:03 51.00279 11.29050 2002 ft 139 kts 84°
2026-05-08 14:04 51.00375 11.30582 2007 ft 140 kts 83°
2026-05-08 14:04 51.00466 11.32115 2007 ft 139 kts 84°
2026-05-08 14:04 51.00556 11.33641 2007 ft 139 kts 84°
2026-05-08 14:04 51.00648 11.35176 2006 ft 141 kts 84°
2026-05-08 14:05 51.00740 11.36721 2002 ft 140 kts 84°
2026-05-08 14:05 51.00830 11.38254 2006 ft 138 kts 84°
2026-05-08 14:05 51.00919 11.39776 2001 ft 138 kts 84°
2026-05-08 14:05 51.01009 11.41311 2010 ft 141 kts 83°
2026-05-08 14:06 51.01102 11.42865 2011 ft 142 kts 84°
2026-05-08 14:06 51.01193 11.44420 2006 ft 140 kts 83°
2026-05-08 14:06 51.01282 11.45957 2006 ft 141 kts 84°
2026-05-08 14:06 51.01372 11.47497 2008 ft 139 kts 83°
2026-05-08 14:07 51.01461 11.49013 2006 ft 140 kts 84°
2026-05-08 14:07 51.01551 11.50551 2003 ft 140 kts 84°
2026-05-08 14:07 51.01639 11.52082 2002 ft 139 kts 83°
2026-05-08 14:07 51.01728 11.53608 1999 ft 138 kts 83°
2026-05-08 14:08 51.01813 11.55113 2001 ft 137 kts 83°
2026-05-08 14:08 51.01900 11.56614 2000 ft 137 kts 84°
2026-05-08 14:08 51.01987 11.58124 2000 ft 138 kts 83°
2026-05-08 14:08 51.02073 11.59631 1994 ft 136 kts 84°
2026-05-08 14:09 51.02159 11.61126 2006 ft 137 kts 84°
2026-05-08 14:09 51.02246 11.62628 2004 ft 136 kts 83°
2026-05-08 14:09 51.02329 11.64118 2005 ft 136 kts 84°
2026-05-08 14:09 51.02414 11.65621 2007 ft 137 kts 83°
2026-05-08 14:10 51.02501 11.67138 2006 ft 138 kts 83°
2026-05-08 14:10 51.02557 11.68149 2013 ft 141 kts 83°
2026-05-08 14:10 51.02647 11.69714 2005 ft 142 kts 84°
2026-05-08 14:10 51.02733 11.71268 2008 ft 141 kts 84°
2026-05-08 14:11 51.02820 11.72817 2009 ft 140 kts 84°
2026-05-08 14:11 51.02936 11.74868 2006 ft 141 kts 84°
2026-05-08 14:11 51.02993 11.75912 2008 ft 140 kts 84°
2026-05-08 14:11 51.03109 11.77971 2003 ft 141 kts 84°
2026-05-08 14:12 51.03167 11.79017 2000 ft 139 kts 84°
2026-05-08 14:12 51.03251 11.80550 2002 ft 139 kts 84°
2026-05-08 14:12 51.03335 11.82074 2000 ft 138 kts 84°
2026-05-08 14:12 51.03419 11.83574 2000 ft 139 kts 84°
2026-05-08 14:13 51.03505 11.85122 1997 ft 137 kts 84°
2026-05-08 14:13 51.03585 11.86598 1999 ft 136 kts 83°
2026-05-08 14:13 51.03669 11.88095 1999 ft 136 kts 83°
2026-05-08 14:13 51.03750 11.89601 2005 ft 138 kts 84°
2026-05-08 14:14 51.03834 11.91133 2001 ft 140 kts 83°
2026-05-08 14:14 51.03917 11.92670 2002 ft 140 kts 83°
2026-05-08 14:14 51.04001 11.94218 2005 ft 141 kts 84°
2026-05-08 14:14 51.04085 11.95771 2006 ft 141 kts 83°
2026-05-08 14:15 51.04169 11.97324 2009 ft 141 kts 83°
2026-05-08 14:15 51.04254 11.98874 2001 ft 140 kts 83°
2026-05-08 14:15 51.04335 12.00406 2007 ft 138 kts 84°
2026-05-08 14:15 51.04417 12.01925 2005 ft 138 kts 84°
2026-05-08 14:16 51.04499 12.03448 2003 ft 138 kts 84°
2026-05-08 14:16 51.04580 12.04962 2005 ft 138 kts 84°
2026-05-08 14:16 51.04660 12.06483 2005 ft 139 kts 84°
2026-05-08 14:16 51.04741 12.08017 2004 ft 140 kts 84°
2026-05-08 14:17 51.04824 12.09556 2003 ft 139 kts 83°
2026-05-08 14:17 51.04903 12.11083 2006 ft 139 kts 83°
2026-05-08 14:17 51.04984 12.12610 2008 ft 139 kts 84°
2026-05-08 14:17 51.05065 12.14140 2004 ft 139 kts 84°
2026-05-08 14:18 51.05145 12.15670 2000 ft 137 kts 84°
2026-05-08 14:18 51.05225 12.17182 2002 ft 137 kts 84°
2026-05-08 14:18 51.05303 12.18699 2003 ft 138 kts 84°
2026-05-08 14:18 51.05383 12.20230 1998 ft 139 kts 83°
2026-05-08 14:19 51.05463 12.21763 1997 ft 139 kts 84°
2026-05-08 14:19 51.05542 12.23299 2000 ft 140 kts 84°
2026-05-08 14:19 51.05622 12.24844 2001 ft 141 kts 84°
2026-05-08 14:19 51.05702 12.26390 1998 ft 140 kts 84°
2026-05-08 14:20 51.05781 12.27931 1997 ft 139 kts 84°
2026-05-08 14:20 51.05858 12.29438 1999 ft 137 kts 85°
2026-05-08 14:20 51.05938 12.30971 1997 ft 137 kts 84°
2026-05-08 14:20 51.06014 12.32465 1993 ft 138 kts 84°
2026-05-08 14:21 51.06089 12.33979 1993 ft 138 kts 84°
2026-05-08 14:21 51.06167 12.35505 1994 ft 139 kts 84°
2026-05-08 14:21 51.06244 12.37035 1997 ft 139 kts 84°
2026-05-08 14:21 51.06322 12.38578 1998 ft 139 kts 84°
2026-05-08 14:22 51.06401 12.40122 1999 ft 141 kts 83°
2026-05-08 14:22 51.06478 12.41676 1997 ft 141 kts 84°
2026-05-08 14:22 51.06556 12.43230 1993 ft 140 kts 83°
2026-05-08 14:22 51.06631 12.44769 1997 ft 139 kts 83°
2026-05-08 14:23 51.06710 12.46303 1999 ft 139 kts 84°
2026-05-08 14:23 51.06786 12.47843 1997 ft 140 kts 84°
2026-05-08 14:23 51.06862 12.49383 1996 ft 140 kts 84°
2026-05-08 14:23 51.06939 12.50927 1997 ft 140 kts 84°
2026-05-08 14:24 51.07014 12.52473 1997 ft 140 kts 84°
2026-05-08 14:24 51.07090 12.54026 1996 ft 141 kts 84°
2026-05-08 14:24 51.07168 12.55578 1994 ft 140 kts 83°
2026-05-08 14:24 51.07243 12.57116 1995 ft 140 kts 84°
2026-05-08 14:25 51.07318 12.58664 1998 ft 140 kts 84°
2026-05-08 14:25 51.07392 12.60204 1998 ft 140 kts 84°
2026-05-08 14:25 51.07466 12.61740 2000 ft 139 kts 84°
2026-05-08 14:25 51.07541 12.63265 1997 ft 140 kts 84°
2026-05-08 14:26 51.07615 12.64807 1996 ft 140 kts 84°
2026-05-08 14:26 51.07690 12.66359 1996 ft 141 kts 84°
2026-05-08 14:26 51.07764 12.67913 1996 ft 141 kts 84°
2026-05-08 14:26 51.07838 12.69464 1997 ft 140 kts 84°
2026-05-08 14:27 51.07912 12.71010 2002 ft 140 kts 84°
2026-05-08 14:27 51.07985 12.72556 2000 ft 140 kts 84°
2026-05-08 14:27 51.08058 12.74097 1998 ft 139 kts 84°
2026-05-08 14:27 51.08131 12.75629 2000 ft 139 kts 85°
2026-05-08 14:28 51.08202 12.77156 1997 ft 138 kts 84°
2026-05-08 14:28 51.08275 12.78683 1991 ft 138 kts 84°
2026-05-08 14:28 51.08345 12.80207 1992 ft 138 kts 84°
2026-05-08 14:28 51.08418 12.81734 1990 ft 139 kts 84°
2026-05-08 14:29 51.08490 12.83273 1994 ft 140 kts 84°
2026-05-08 14:29 51.08561 12.84800 2001 ft 140 kts 84°
2026-05-08 14:29 51.08633 12.86355 1992 ft 141 kts 84°
2026-05-08 14:29 51.08704 12.87904 1998 ft 141 kts 84°
2026-05-08 14:30 51.08775 12.89459 1985 ft 140 kts 84°
2026-05-08 14:30 51.08848 12.91009 1984 ft 141 kts 83°
2026-05-08 14:30 51.08918 12.92563 1987 ft 141 kts 84°
2026-05-08 14:30 51.08988 12.94103 1985 ft 139 kts 83°
2026-05-08 14:31 51.09059 12.95645 1999 ft 140 kts 84°
2026-05-08 14:31 51.09130 12.97194 1998 ft 141 kts 84°
2026-05-08 14:31 51.09200 12.98755 1988 ft 142 kts 85°
2026-05-08 14:32 51.09341 13.01873 1994 ft 141 kts 84°
2026-05-08 14:32 51.09410 13.03426 1997 ft 139 kts 85°
2026-05-08 14:32 51.09478 13.04959 1998 ft 139 kts 85°
2026-05-08 14:32 51.09547 13.06498 1997 ft 140 kts 85°
2026-05-08 14:33 51.09616 13.08048 1999 ft 140 kts 85°
2026-05-08 14:33 51.09685 13.09599 2002 ft 141 kts 85°
2026-05-08 14:33 51.09753 13.11158 2002 ft 142 kts 85°
2026-05-08 14:33 51.09823 13.12730 2006 ft 142 kts 84°
2026-05-08 14:34 51.09893 13.14311 1999 ft 142 kts 85°
2026-05-08 14:34 51.09961 13.15877 2003 ft 141 kts 84°
2026-05-08 14:34 51.10030 13.17442 2003 ft 142 kts 84°
2026-05-08 14:34 51.10098 13.19002 1997 ft 140 kts 84°
2026-05-08 14:35 51.10165 13.20549 2002 ft 140 kts 84°
2026-05-08 14:35 51.10231 13.22078 2002 ft 140 kts 85°
2026-05-08 14:35 51.10298 13.23630 2000 ft 140 kts 84°
2026-05-08 14:35 51.10364 13.25176 1999 ft 140 kts 85°
2026-05-08 14:36 51.10429 13.26717 2002 ft 140 kts 84°
2026-05-08 14:36 51.10497 13.28266 2005 ft 142 kts 85°
2026-05-08 14:36 51.10564 13.29833 1979 ft 143 kts 84°
2026-05-08 14:36 51.10631 13.31422 1931 ft 146 kts 84°
2026-05-08 14:37 51.10698 13.33030 1882 ft 147 kts 85°
2026-05-08 14:37 51.10767 13.34655 1826 ft 149 kts 84°
2026-05-08 14:37 51.10834 13.36254 1806 ft 139 kts 85°
2026-05-08 14:37 51.10896 13.37746 1794 ft 131 kts 85°
2026-05-08 14:38 51.10956 13.39168 1792 ft 127 kts 85°
2026-05-08 14:38 51.11014 13.40553 1795 ft 124 kts 84°
2026-05-08 14:38 51.11072 13.41944 1794 ft 127 kts 85°
2026-05-08 14:38 51.11130 13.43357 1797 ft 129 kts 84°
2026-05-08 14:39 51.11192 13.44803 1754 ft 134 kts 85°
2026-05-08 14:39 51.11253 13.46300 1708 ft 137 kts 85°
2026-05-08 14:39 51.11314 13.47797 1663 ft 131 kts 85°
2026-05-08 14:39 51.11372 13.49216 1613 ft 127 kts 85°
2026-05-08 14:40 51.11428 13.50598 1613 ft 123 kts 85°
2026-05-08 14:40 51.11484 13.51940 1607 ft 121 kts 86°
2026-05-08 14:40 51.11537 13.53273 1601 ft 119 kts 85°
2026-05-08 14:40 51.11590 13.54588 1600 ft 120 kts 85°
2026-05-08 14:41 51.11643 13.55922 1596 ft 121 kts 85°
2026-05-08 14:41 51.11699 13.57258 1597 ft 121 kts 85°
2026-05-08 14:41 51.11753 13.58598 1600 ft 121 kts 85°
2026-05-08 14:41 51.11737 13.59943 1600 ft 122 kts 91°
2026-05-08 14:42 51.11700 13.61271 1605 ft 121 kts 91°
2026-05-08 14:42 51.11662 13.62598 1599 ft 118 kts 92°
2026-05-08 14:42 51.11618 13.63905 1597 ft 117 kts 92°
2026-05-08 14:42 51.11565 13.65185 1597 ft 116 kts 91°
2026-05-08 14:43 51.11518 13.66455 1602 ft 113 kts 91°
2026-05-08 14:43 51.11439 13.67726 1542 ft 117 kts 98°
2026-05-08 14:43 51.11320 13.68852 1466 ft 98 kts 94°
2026-05-08 14:43 51.11322 13.69893 1363 ft 92 kts 82°
2026-05-08 14:44 51.11403 13.70879 1275 ft 88 kts 82°
2026-05-08 14:44 51.11465 13.71861 1187 ft 89 kts 85°
2026-05-08 14:44 51.11516 13.72848 1140 ft 89 kts 83°
2026-05-08 14:44 51.11625 13.73841 1055 ft 92 kts 72°
2026-05-08 14:45 51.11948 13.74716 944 ft 93 kts 50°
2026-05-08 14:45 51.12419 13.75396 771 ft 89 kts 43°
2026-05-08 14:45 51.12866 13.76023 704 ft 80 kts 43°
2026-05-08 14:45 51.13195 13.76474 707 ft 48 kts 41°
2026-05-08 14:46 51.13362 13.76746 700 ft 19 kts 94°
2026-05-08 14:46 51.13304 13.76874 705 ft 13 kts 134°
2026-05-08 14:46 51.13258 13.76950 705 ft 6 kts 134°
2026-05-08 14:46 51.13254 13.76958 705 ft 0 kts 128°
2026-05-08 14:47 51.13206 13.76976 705 ft 10 kts 210°
2026-05-08 14:47 51.13154 13.76897 705 ft 11 kts 223°
2026-05-08 14:47 51.13093 13.76811 705 ft 13 kts 221°
2026-05-08 14:47 51.13022 13.76710 703 ft 15 kts 220°
2026-05-08 14:48 51.12938 13.76598 698 ft 16 kts 220°
2026-05-08 14:48 51.12849 13.76475 699 ft 18 kts 222°
2026-05-08 14:48 51.12751 13.76342 701 ft 19 kts 221°
2026-05-08 14:48 51.12649 13.76199 705 ft 20 kts 221°
2026-05-08 14:49 51.12551 13.76064 705 ft 16 kts 223°
2026-05-08 14:49 51.12469 13.75949 704 ft 13 kts 222°
2026-05-08 14:49 51.12419 13.75954 703 ft 8 kts 127°
2026-05-08 14:49 51.12381 13.76024 700 ft 7 kts 135°
2026-05-08 14:50 51.12350 13.76027 705 ft 4 kts 225°
2026-05-08 14:50 51.12339 13.75985 705 ft 3 kts 307°
2026-05-08 14:50 51.12353 13.75962 702 ft 0 kts 314°